Tepic, Mexico

8:11 PM MDT on May 20, 2018 (GMT -0600)
Tepic

Weather History for MMEP - October, 2012

Change the Weather History Date:

Monday, October 1, 2012

  Actual Average Record
Temperature  
Mean Temperature 80 °F -  
Max Temperature 88 °F 83 °F 91 °F (2010)
Min Temperature 72 °F 65 °F 62 °F (2003)
Cooling Degree Days 15    
Growing Degree Days 30 (Base 50)    
Moisture  
Dew Point 69 °F    
Average Humidity 71    
Maximum Humidity 94    
Minimum Humidity 46    
Precipitation  
Precipitation 0.00 in - - ()
Sea Level Pressure  
Sea Level Pressure 29.90 in    
Wind  
Wind Speed 2 mph ()    
Max Wind Speed 9 mph    
Max Gust Speed -    
Visibility 9.0 miles    
Events      
Averages and records for this station are not official NWS values.
T = Trace of Precipitation, MM = Missing Value Source: Averaged Metar Reports

Daily Weather History Graph

Daily Weather History Graph

Search for Another Location

Airport or City:

Astronomy

Oct. 01, 2012 Rise Set
Actual Time 6:51 AM MDT 6:46 PM MDT
Civil Twilight 6:28 AM MDT 7:09 PM MDT
Nautical Twilight 6:02 AM MDT 7:34 PM MDT
Astronomical Twilight 5:37 AM MDT 8:00 PM MDT
Moon 7:45 PM MDT (10/1) 8:05 AM MDT (10/1)
Length of Visible Light 12h 40m
Length of Day
11h 55m
Full, 97% of the Moon is Illuminated
Oct 1
Full
Oct 8
Last Quarter
Oct 15
New
Oct 21
First Quarter
Oct 29
Full

Hourly Weather History & Observations

Time (MDT) Temp. Heat Index Dew Point Humidity Pressure Visibility Wind Dir Wind Speed Gust Speed Precip Events Conditions
2:32 AM 73 °F - 71 °F 92% 29.80 in 6 mi NNW 4.5 mph - -   Overcast
5:30 AM 73 °F - 71 °F 89% 29.80 in 6 mi Calm Calm - -   Mostly Cloudy
6:10 AM 66.2 °F - 64.4 °F 94% 30.02 in 5.0 mi Calm Calm - N/A   Overcast
6:43 AM 66.2 °F - 64.4 °F 94% 30.03 in 4.0 mi Calm Calm - N/A   Overcast
7:44 AM 73.4 °F - 66.2 °F 78% 30.03 in 5.0 mi Calm Calm - N/A   Mostly Cloudy
8:34 AM 76 °F - 72 °F 83% 29.84 in 12 mi NNE 4.5 mph - -   Mist
8:46 AM 77.0 °F - 66.2 °F 69% 29.86 in 7.0 mi Calm Calm - N/A   Mostly Cloudy
9:50 AM 80.6 °F 82.7 °F 66.2 °F 61% 30.05 in 7.0 mi Calm Calm - N/A   Mostly Cloudy
10:40 AM 80.6 °F 82.7 °F 66.2 °F 61% 30.05 in 10.0 mi Calm Calm - N/A   Mostly Cloudy
11:32 AM 83 °F - 69 °F 54% 29.79 in 12 mi ENE 6.7 mph - -   Partly Cloudy
11:45 AM 82.4 °F 85.4 °F 68.0 °F 62% 29.83 in 10.0 mi Calm Calm - N/A   Mostly Cloudy
12:45 PM 84.2 °F 86.6 °F 66.2 °F 55% 30.01 in 10.0 mi Calm Calm - N/A   Scattered Clouds
1:50 PM 87.8 °F 89.4 °F 64.4 °F 46% 30.05 in 12.0 mi Calm Calm - N/A   Scattered Clouds
2:33 PM 88 °F - 72 °F 51% 29.72 in 12 mi West 6.7 mph - -   Partly Cloudy
3:03 PM 87.8 °F 91.4 °F 68.0 °F 52% 29.73 in 12.0 mi North 3.5 mph - N/A   Mostly Cloudy
3:53 PM 86.0 °F 93.4 °F 73.4 °F 66% 30.02 in 12.0 mi North 4.6 mph - N/A   Scattered Clouds
4:44 PM 82.4 °F 89.5 °F 75.2 °F 79% 30.02 in 12.0 mi North 6.9 mph - N/A   Scattered Clouds
5:33 PM 82 °F - 74 °F 69% 29.71 in 12 mi WNW 8.9 mph - -   Partly Cloudy
5:48 PM 77.0 °F - 64.4 °F 65% 29.84 in 10.0 mi South 5.8 mph - N/A   Mostly Cloudy
6:45 PM 75.2 °F - 64.4 °F 69% 29.95 in 10.0 mi South 3.5 mph - N/A   Scattered Clouds
7:49 PM 73.4 °F - 68.0 °F 83% 29.97 in 10.0 mi Calm Calm - N/A   Mostly Cloudy
8:34 PM 77 °F - 73 °F 83% 29.78 in 6 mi SE 4.5 mph - -   Scattered Clouds
11:35 PM 75 °F - 72 °F 86% 29.84 in 6 mi SSE 4.5 mph - -   Scattered Clouds